| time (UTC) | temp F | wind direction | speed MPH | gust MPH | rain 1hr in | rain 24hr in | rain mn in | humidity % | barometer mb |
| 20260508231517 | 58 | 223 | 0.0 | 0.0 | 0.00 | 0.00 | 0.00 | 79 | 1013.4 |
| 20260508230017 | 58 | 223 | 0.0 | 0.0 | 0.00 | 0.00 | 0.00 | 79 | 1013.4 |
| 20260508224521 | 58 | 223 | 0.0 | 0.0 | 0.00 | 0.00 | 0.00 | 77 | 1013.5 |
| 20260508223014 | 59 | 223 | 0.0 | 0.0 | 0.00 | 0.00 | 0.00 | 77 | 1013.4 |
| 20260508221512 | 59 | 223 | 0.0 | 0.0 | 0.00 | 0.00 | 0.00 | 77 | 1013.4 |
| 20260508220010 | 60 | 223 | 0.0 | 0.0 | 0.00 | 0.00 | 0.00 | 76 | 1013.4 |
| 20260508214522 | 60 | 223 | 0.0 | 0.0 | 0.00 | 0.00 | 0.00 | 75 | 1013.4 |
| 20260508213010 | 60 | 223 | 0.0 | 0.0 | 0.00 | 0.00 | 0.00 | 75 | 1013.2 |
| 20260508211515 | 61 | 223 | 0.0 | 0.0 | 0.00 | 0.00 | 0.00 | 74 | 1013.2 |
| 20260508210016 | 61 | 223 | 0.0 | 0.0 | 0.00 | 0.00 | 0.00 | 73 | 1013.2 |
| 20260508204508 | 62 | 223 | 0.0 | 0.0 | 0.00 | 0.00 | 0.00 | 72 | 1013.1 |
| 20260508203008 | 62 | 223 | 0.0 | 0.0 | 0.00 | 0.00 | 0.00 | 71 | 1013.0 |
| 20260508201508 | 63 | 223 | 0.0 | 0.0 | 0.00 | 0.00 | 0.00 | 70 | 1012.9 |
| 20260508200011 | 63 | 223 | 0.0 | 0.0 | 0.00 | 0.00 | 0.00 | 68 | 1012.8 |
| 20260508194508 | 64 | 223 | 0.0 | 0.0 | 0.00 | 0.00 | 0.00 | 68 | 1012.7 |
| 20260508193007 | 64 | 223 | 0.0 | 0.0 | 0.00 | 0.00 | 0.00 | 66 | 1012.6 |
| 20260508191506 | 65 | 223 | 0.0 | 0.0 | 0.00 | 0.00 | 0.00 | 64 | 1012.4 |
| 20260508190005 | 65 | 223 | 0.0 | 0.0 | 0.00 | 0.00 | 0.00 | 64 | 1012.2 |
| 20260508184505 | 66 | 223 | 0.0 | 0.0 | 0.00 | 0.00 | 0.00 | 62 | 1012.0 |
| 20260508183004 | 67 | 223 | 0.0 | 0.0 | 0.00 | 0.00 | 0.00 | 61 | 1011.7 |
| 20260508181503 | 67 | 223 | 0.0 | 0.0 | 0.00 | 0.00 | 0.00 | 60 | 1011.7 |
| 20260508180003 | 68 | 225 | 0.0 | 0.0 | 0.00 | 0.00 | 0.00 | 59 | 1011.5 |
| 20260508174503 | 68 | 229 | 0.0 | 0.0 | 0.00 | 0.00 | 0.00 | 60 | 1011.3 |
| 20260508173002 | 69 | 221 | 0.0 | 0.0 | 0.00 | 0.00 | 0.00 | 60 | 1011.2 |
| 20260508171501 | 69 | 226 | 0.0 | 0.0 | 0.00 | 0.00 | 0.00 | 59 | 1011.2 |
| 20260508170002 | 70 | 236 | 0.0 | 0.0 | 0.00 | 0.00 | 0.00 | 58 | 1011.2 |
| 20260508164501 | 71 | 236 | 0.0 | 0.0 | 0.00 | 0.00 | 0.00 | 56 | 1011.1 |
| 20260508163108 | 72 | 267 | 0.0 | 0.0 | 0.00 | 0.00 | 0.00 | 50 | 1011.0 |
| 20260508161601 | 72 | 266 | 0.0 | 0.0 | 0.00 | 0.00 | 0.00 | 50 | 1011.0 |
| 20260508160059 | 71 | 260 | 0.0 | 0.0 | 0.00 | 0.00 | 0.00 | 50 | 1011.0 |
| 20260508154559 | 72 | 240 | 0.0 | 1.0 | 0.00 | 0.00 | 0.00 | 48 | 1010.9 |
| 20260508153108 | 72 | 257 | 0.0 | 0.0 | 0.00 | 0.00 | 0.00 | 49 | 1010.9 |
| 20260508151557 | 72 | 239 | 0.0 | 0.0 | 0.00 | 0.00 | 0.00 | 50 | 1010.9 |
| 20260508150055 | 73 | 241 | 0.0 | 1.0 | 0.00 | 0.00 | 0.00 | 48 | 1011.1 |
| 20260508144554 | 73 | 232 | 0.0 | 4.0 | 0.00 | 0.00 | 0.00 | 49 | 1011.1 |
| 20260508143114 | 72 | 251 | 0.0 | 0.0 | 0.00 | 0.00 | 0.00 | 50 | 1011.3 |
| 20260508141558 | 73 | 242 | 0.0 | 0.0 | 0.00 | 0.00 | 0.00 | 50 | 1011.3 |
| 20260508140105 | 73 | 258 | 0.0 | 0.0 | 0.00 | 0.16 | 0.00 | 48 | 1011.4 |
| 20260508134550 | 73 | 343 | 0.0 | 0.0 | 0.00 | 0.16 | 0.00 | 47 | 1011.4 |
| 20260508133049 | 73 | 225 | 0.0 | 0.0 | 0.00 | 0.16 | 0.00 | 50 | 1011.7 |
| 20260508131547 | 73 | 238 | 0.0 | 0.0 | 0.00 | 0.16 | 0.00 | 50 | 1011.8 |
| 20260508130044 | 73 | 227 | 0.0 | 0.0 | 0.00 | 0.16 | 0.00 | 51 | 1011.9 |
| 20260508124543 | 72 | 202 | 0.0 | 0.0 | 0.00 | 0.16 | 0.00 | 53 | 1012.1 |
| 20260508123047 | 72 | 235 | 0.0 | 0.0 | 0.00 | 0.16 | 0.00 | 52 | 1012.3 |
| 20260508121545 | 72 | 233 | 0.0 | 0.0 | 0.00 | 0.16 | 0.00 | 52 | 1012.4 |
| 20260508120040 | 72 | 242 | 0.0 | 0.0 | 0.00 | 0.16 | 0.00 | 55 | 1012.5 |
| 20260508114539 | 72 | 275 | 0.0 | 0.0 | 0.00 | 0.16 | 0.00 | 55 | 1012.5 |
| 20260508113040 | 72 | 86 | 0.0 | 0.0 | 0.00 | 0.16 | 0.00 | 53 | 1012.6 |
| 20260508111540 | 72 | 219 | 0.0 | 0.0 | 0.00 | 0.16 | 0.00 | 57 | 1012.7 |
| 20260508110036 | 72 | 302 | 0.0 | 0.0 | 0.00 | 0.16 | 0.00 | 57 | 1012.7 |
| 20260508104534 | 70 | 90 | 0.0 | 0.0 | 0.00 | 0.16 | 0.00 | 54 | 1012.9 |
| 20260508103043 | 70 | 75 | 0.0 | 0.0 | 0.00 | 0.16 | 0.00 | 60 | 1012.9 |
| 20260508101532 | 69 | 86 | 0.0 | 0.0 | 0.00 | 0.16 | 0.00 | 61 | 1013.0 |
| 20260508100036 | 69 | 84 | 0.0 | 0.0 | 0.00 | 0.16 | 0.00 | 64 | 1013.0 |
| 20260508094527 | 67 | 64 | 0.0 | 0.0 | 0.00 | 0.16 | 0.00 | 64 | 1013.3 |
| 20260508093034 | 67 | 96 | 0.0 | 0.0 | 0.00 | 0.16 | 0.00 | 67 | 1013.4 |
| 20260508091527 | 67 | 88 | 0.0 | 0.0 | 0.00 | 0.16 | 0.00 | 67 | 1013.4 |
| 20260508090026 | 66 | 84 | 0.0 | 0.0 | 0.00 | 0.16 | 0.00 | 68 | 1013.3 |
| 20260508084522 | 65 | 90 | 0.0 | 0.0 | 0.00 | 0.16 | 0.00 | 70 | 1013.3 |
| 20260508083022 | 65 | 61 | 0.0 | 0.0 | 0.00 | 0.16 | 0.00 | 71 | 1013.3 |
| 20260508081521 | 66 | 65 | 0.0 | 0.0 | 0.00 | 0.16 | 0.00 | 70 | 1013.3 |
| 20260508080019 | 66 | 59 | 0.0 | 0.0 | 0.00 | 0.16 | 0.00 | 70 | 1013.3 |
| 20260508074519 | 65 | 76 | 0.0 | 0.0 | 0.00 | 0.16 | 0.00 | 73 | 1013.4 |
| 20260508073014 | 64 | 78 | 0.0 | 0.0 | 0.00 | 0.16 | 0.00 | 74 | 1013.3 |
| 20260508071515 | 62 | 90 | 0.0 | 0.0 | 0.00 | 0.16 | 0.00 | 76 | 1013.4 |
| 20260508070010 | 61 | 96 | 0.0 | 0.0 | 0.00 | 0.16 | 0.00 | 78 | 1013.3 |
| 20260508064510 | 61 | 83 | 0.0 | 0.0 | 0.00 | 0.16 | 0.00 | 77 | 1013.4 |
| 20260508063005 | 61 | 60 | 0.0 | 0.0 | 0.00 | 0.16 | 0.00 | 77 | 1013.3 |
| 20260508061504 | 61 | 86 | 0.0 | 0.0 | 0.00 | 0.16 | 0.00 | 76 | 1013.1 |
| 20260508060130 | 60 | 98 | 0.0 | 0.0 | 0.00 | 0.16 | 0.00 | 81 | 1012.8 |
| 20260508054640 | 58 | 61 | 0.0 | 0.0 | 0.00 | 0.16 | 0.00 | 80 | 1012.8 |
| 20260508053056 | 58 | 92 | 0.0 | 0.0 | 0.00 | 0.16 | 0.00 | 76 | 1012.8 |
| 20260508051554 | 58 | 63 | 0.0 | 0.0 | 0.00 | 0.16 | 0.00 | 76 | 1012.6 |
| 20260508050054 | 56 | 62 | 0.0 | 0.0 | 0.00 | 0.16 | 0.00 | 78 | 1012.6 |
| 20260508044554 | 56 | 62 | 0.0 | 0.0 | 0.00 | 0.16 | 0.00 | 79 | 1012.5 |
| 20260508043058 | 55 | 62 | 0.0 | 0.0 | 0.00 | 0.16 | 0.00 | 80 | 1012.4 |
| 20260508041553 | 55 | 62 | 0.0 | 0.0 | 0.00 | 0.16 | 0.00 | 80 | 1012.3 |
| 20260508040052 | 55 | 62 | 0.0 | 0.0 | 0.00 | 0.16 | 0.00 | 80 | 1012.1 |
| 20260508034552 | 55 | 61 | 0.0 | 0.0 | 0.00 | 0.16 | 0.00 | 80 | 1012.2 |
| 20260508033048 | 55 | 61 | 0.0 | 0.0 | 0.00 | 0.16 | 0.00 | 79 | 1012.3 |
| 20260508031552 | 55 | 69 | 0.0 | 0.0 | 0.00 | 0.16 | 0.00 | 78 | 1012.2 |
| 20260508030047 | 56 | 72 | 0.0 | 0.0 | 0.00 | 0.16 | 0.00 | 78 | 1012.3 |
| 20260508024556 | 56 | 72 | 0.0 | 0.0 | 0.00 | 0.16 | 0.00 | 78 | 1012.4 |
| 20260508023044 | 56 | 72 | 0.0 | 0.0 | 0.00 | 0.16 | 0.00 | 79 | 1012.6 |
| 20260508021544 | 56 | 72 | 0.0 | 0.0 | 0.00 | 0.16 | 0.00 | 79 | 1012.6 |
| 20260508020049 | 56 | 72 | 0.0 | 0.0 | 0.00 | 0.16 | 0.00 | 79 | 1012.6 |
| 20260508014545 | 56 | 72 | 0.0 | 0.0 | 0.00 | 0.16 | 0.00 | 79 | 1012.6 |
| 20260508013040 | 56 | 73 | 0.0 | 0.0 | 0.00 | 0.16 | 0.00 | 80 | 1012.7 |
| 20260508011539 | 56 | 73 | 0.0 | 0.0 | 0.00 | 0.16 | 0.00 | 79 | 1012.8 |
| 20260508010047 | 56 | 73 | 0.0 | 0.0 | 0.00 | 0.16 | 0.00 | 79 | 1012.6 |
| 20260508004537 | 56 | 73 | 0.0 | 0.0 | 0.00 | 0.16 | 0.00 | 79 | 1012.6 |
| 20260508003039 | 56 | 74 | 0.0 | 0.0 | 0.00 | 0.16 | 0.00 | 79 | 1012.7 |
| 20260508001534 | 57 | 74 | 0.0 | 0.0 | 0.00 | 0.16 | 0.00 | 78 | 1012.6 |
| 20260508000033 | 57 | 74 | 0.0 | 0.0 | 0.00 | 0.16 | 0.00 | 77 | 1012.7 |
| 20260507234532 | 58 | 74 | 0.0 | 0.0 | 0.00 | 0.16 | 0.00 | 77 | 1012.7 |
| 20260507233031 | 58 | 78 | 0.0 | 0.0 | 0.00 | 0.16 | 0.00 | 77 | 1012.6 |